Terug naar catalogus

STARLINK-31068

ActiefCommunicatieVLEO
NORAD 58623·PAYLOAD·🇺🇸 United States

Gelanceerd Dec 23, 2023 vanaf Cape Canaveral Space Force Station

Loading…

Volgende Passages (komende 24 uur)

TLE

VersSource: CelesTrak SupGP

Epoch: Sep 15, 2026, 02:12 UTC

1 58623C 23203F   26258.09215278  .00003546  00000+0  12841-3 0  2585
2 58623  43.0004  77.4929 0001287 269.3666 230.3439 15.27580683    11

Volg STARLINK-31068 in realtime met AllMySat

Download on the App Store